Regional Weather Roundup
Issued by NWS Green Bay, WI

Home | Current Version | Previous Version | Graphics & Text | Print | Product List | Glossary Off
Versions: 1 2 3 4 5 6 7 8 9 10 11 12 13 14 15 16 17 18 19 20 21 22 23 24 25 26 27 28 29 30 31 32 33 34 35 36 37 38 39 40 41 42 43 44 45 46 47 48 49 50

000
ASUS43 KGRB 300800
RWRGRB

NORTH-CENTRAL AND NORTHEAST WISCONSIN REGIONAL WEATHER ROUNDUP
NATIONAL WEATHER SERVICE GREEN BAY WI
300 AM CDT SAT APR 30 2016

WIZ005-009-010>012-018-019-300900-
NORTH CENTRAL WISCONSIN

CITY           SKY/WX    TMP DP  RH WIND       PRES   REMARKS
IRONWOOD         N/A     34  34 100 E3        30.20F
MANITOWISH WTR NOT AVBL
ARBOR VITAE    NOT AVBL
EAGLE RIVER    NOT AVBL
LAND O LAKES   NOT AVBL
RHINELANDER    CLEAR     37  28  70 E5        30.17F
PHILLIPS       NOT AVBL
ANTIGO         NOT AVBL
TOMAHAWK       NOT AVBL
MERRILL        CLOUDY    32  30  93 E3        30.17F
$$

WIZ013-073-300900-
NORTHEAST WISCONSIN

CITY           SKY/WX    TMP DP  RH WIND       PRES   REMARKS
IRON MOUNTAIN  CLOUDY    38  28  67 N7        30.19R
MARINETTE      CLOUDY    39  28  65 CALM      30.19S
$$

WIZ017-030-035>037-045-300900-
CENTRAL WISCONSIN

CITY           SKY/WX    TMP DP  RH WIND       PRES   REMARKS
MEDFORD        NOT AVBL
WAUSAU         CLOUDY    42  30  62 NE7       30.13F
MOSINEE        NOT AVBL
MARSHFIELD     CLOUDY    40  33  76 E6        30.12F
WISC RAPIDS    CLOUDY    39  31  72 E6        30.14F
STEVENS POINT  NOT AVBL
WAUPACA        NOT AVBL
SHAWANO        NOT AVBL
CLINTONVILLE   NOT AVBL
WAUTOMA        CLOUDY    35  32  88 CALM      30.14
$$

WIZ038-039-048-051-300900-
FOX VALLEY

CITY           SKY/WX    TMP DP  RH WIND       PRES   REMARKS
NWS GREEN BAY  PTCLDY    38  32  79 NE7       30.15F
APPLETON       NOT AVBL
OSHKOSH        PTCLDY    36  31  82 CALM      30.13F
FOND DU LAC    CLOUDY    35  30  82 CALM      30.13F
$$

WIZ022-050-052-300900-
EAST CENTRAL WISCONSIN

CITY           SKY/WX    TMP DP  RH WIND       PRES   REMARKS
EPHRAIM        NOT AVBL
STURGEON BAY   CLOUDY    43  28  56 NE8       30.19S
MANITOWOC      NOT AVBL
SHEBOYGAN      PTCLDY    34  30  85 NW3       30.14S
$$

LMZ563-521-522-541>543-300900-
LAKESHORE

STATION/POSITION TIME  TEMP    WIND        PRES    VSBY  WAVE
                       AIR SEA DIR/SP/G                  HT/PER
                 (UTC) (F)     (DEG/KT/KT) (MB)    (MI)  (FT/S)
SHEBOYGAN LKSHOR 0700   43      10/  2/  3 1021.7R
KEWAUNEE LKSHORE 0700   45      10/  8/ 12 1020.3S
ALGOMA MARINA    0715          330/  9/ 10   N/A
NORTHPORT PIER   0700   42      30/  5/  7 1022.0S
N MID LAKE BUOY  0650   40 38   30/ 10/ 10 1022.1R         0
CHAMBERS ISLAND  0700   41      10/  9/ 11 1022.0
MENOMINEE LKSHOR 0700   42      20/ 11/ 12 1020.7F
$$




USA.gov is the U.S. government's official web portal to all federal, state and local government web resources and services.